Location: Dötzum
(52.0808°N, 9.8063°E)
Time: 05:39:45
(UTC+00:00)

Cosmos 2251 Rocket - Pass Details

Date: 27 May 2022
Orbit: 764 x 791 km, 74.0° (Epoch: 26 June)

Event Time Altitude Azimuth Distance (km) Brightness Sun altitude
Rises 01:21:39 0° 335° (NNW) 3,249 7.3 -11.8°
Reaches altitude 10° 01:24:02 10° 337° (NNW) 2,321 6.5 -11.7°
Maximum altitude 01:29:19 78° 63° (ENE) 795 3.7 -11.2°
Drops below altitude 10° 01:34:36 10° 151° (SSE) 2,321 5.7 -10.8°
Sets 01:36:59 0° 153° (SSE) 3,249 6.5 -10.6°
